Regional Weather Roundup
Issued by NWS

Home | Current Version | Previous Version | Graphics & Text | Print | Product List | Glossary On
Versions: 1 2 3 4 5 6 7 8 9 10 11 12 13 14 15 16 17 18 19 20 21 22 23 24 25 26 27
000
ASUS45 KCYS 190210
RWRWY

WYOMING REGIONAL WEATHER ROUNDUP
NATIONAL WEATHER SERVICE CHEYENNE WY
700 PM MST SAT NOV 18 2017

NOTE:  "FAIR" INDICATES FEW OR NO CLOUDS BELOW 12,000 FEET
WITH NO SIGNIFICANT WEATHER AND/OR OBSTRUCTIONS TO VISIBILITY.

WYZ001-190300-
YELLOWSTONE NATIONAL PARK

CITY           SKY/WX    TMP DP  RH WIND       PRES   REMARKS
LK YELLOWSTONE   N/A     16  13  88 CALM      30.30F
W YELLOWSTONE  NOT AVBL

$$
WYZ002>013-054>058-071-098>099-190300-
NORTHERN WYOMING

CITY           SKY/WX    TMP DP  RH WIND       PRES   REMARKS
JACKSON        FAIR      18  14  84 N3          N/A
CODY           FAIR      36  14  40 SW15      30.16F WCI  27
GREYBULL       FAIR      32  16  51 E7        30.18S WCI  26
WORLAND        FAIR      25  18  74 CALM      30.18S
SHERIDAN       FAIR      26  19  74 SE3       30.13F
BUFFALO        FAIR      27  12  53 W9        30.14F WCI  18
GILLETTE       FAIR      22  16  78 SW5       30.13F WCI  16
HULETT         FAIR      32  19  59 S8        30.14F WCI  25
NEWCASTLE      FAIR      30  14  51 N8        30.16F WCI  23

$$
WYZ014>020-022>026-101>103-190300-
CENTRAL WYOMING

CITY           SKY/WX    TMP DP  RH WIND       PRES   REMARKS
BIG PINEY      FAIR      14   9  80 N10       30.31F WCI   1
PINEDALE       FAIR      18  12  79 CALM      30.32F
DUBOIS         FAIR      23  12  63 NW28G43   30.18F WCI   6
LANDER         FAIR      32  14  47 W10       30.17F WCI  24
RIVERTON       FAIR      34  13  41 NW14      30.18S WCI  25
CASPER         FAIR      28  18  66 SW20      30.19R WCI  15
DOUGLAS        FAIR      27  21  78 N7        30.17F WCI  19

$$
WYZ021-027>030-104>119-190300-
SOUTHERN WYOMING

CITY           SKY/WX    TMP DP  RH WIND       PRES   REMARKS
EVANSTON       FAIR      22  16  78 CALM      30.33S
FORT BRIDGER   FAIR      19  12  73 W9        30.36S WCI   9
ROCK SPRINGS   FAIR      19  12  74 SW10      30.33F WCI   7
DIXON          FAIR      14   8  78 CALM      30.39S
RAWLINS        FAIR      24  15  68 SW8       30.30F WCI  15
SARATOGA       FAIR      18  10  73 CALM      30.31S
LARAMIE        FAIR      22  11  62 S8        30.21S WCI  12
CHEYENNE       FAIR      29  13  51 W12       30.19R WCI  19
TORRINGTON     FAIR      32  19  58 W10       30.20S WCI  24
PINE BLUFFS    FAIR      27  14  59 MISG      30.22S

$$




USA.gov is the U.S. government's official web portal to all federal, state and local government web resources and services.